{"data":{"norad_id":64065,"intl_designator":"2025-107B","name":"STARLINK-11709 [DTC]","alt_names":[],"object_type":"PAYLOAD","status":"ACTIVE","operator":null,"country":"US","launch_date":"2025-05-21","launch_site_code":"AFETR","launch_vehicle":null,"mission":null,"orbit_class":"UNKNOWN","rcs_meters":null,"size_class":null,"mass_kg":null,"dimensions":null,"purposes":["comms"],"wikipedia_slug":null,"has_3d_model":false,"image_url":null,"decayed_at":null,"tle_current":{"epoch":"2026-05-24T23:29:05.773056Z","epoch_age_seconds":76561,"freshness":"FRESH","line1":"1 64065U 25107B   26144.97853904  .00185013  00000+0  14039-2 0  9994","line2":"2 64065  42.9996 358.6269 0000571 281.1828  78.8976 15.71002038 59291","mean_motion":15.71002038,"eccentricity":5.71e-5,"inclination_deg":42.9996,"raan_deg":358.6269,"arg_perigee_deg":281.1828,"mean_anomaly_deg":78.8976,"bstar":0.0014039,"rev_number":5929,"period_min":91.661243280959,"perigee_km":355.64744539875,"apogee_km":356.41648749471,"semimajor_km":6734.1689664467,"source":"CELESTRAK","updated_at":"2026-05-25T13:38:20.257437Z"}}}